This demonstration page uses our WeatherBlox Daily Observations layout. Learn more.

Hourly Observations for February 12, 2015

Temp ( °F °C ) Dew Point ( °F °C ) Humidity (%) Winds ( mph kmh ) Pressure ( in mb ) Visibility ( mi km ) Precip ( " mm )
12:15 am 00:15 Clear 26 -3.1 19 -7 75 75 NE 10 17 30.59 1036 10 16.0934 0 0
12:35 am 00:35 Clear 26 -3.5 19 -7.4 75 75 NE 12 19 30.59 1036 10 16.0934 0 0
12:55 am 00:55 Mostly Cloudy 26 -3.5 19 -7.5 74 74 NE 13 20 30.59 1036 10 16.0934 0 0
1:15 am 01:15 Cloudy 25 -3.7 17 -8.6 69 69 NNE 18 30 30.62 1037 10 16.0934 0 0
1:35 am 01:35 Cloudy 25 -4 15 -9.2 67 67 NE 20 31 30.62 1037 10 16.0934 0 0
1:55 am 01:55 Cloudy 25 -4.1 16 -9 69 69 NNE 16 26 30.62 1037 10 16.0934 0 0
2:15 am 02:15 Cloudy 24 -4.5 15 -9.5 68 68 NNE 16 26 30.62 1037 10 16.0934 0 0
2:35 am 02:35 Cloudy 24 -4.7 15 -9.5 69 69 NNE 15 24 30.68 1039 10 16.0934 0 0
2:55 am 02:55 Cloudy 23 -5.1 15 -9.4 72 72 NE 15 24 30.62 1037 10 16.0934 0 0
3:15 am 03:15 Cloudy 22 -5.6 15 -9.5 74 74 NNE 12 19 30.68 1039 10 16.0934 0 0
3:35 am 03:35 Cloudy 21 -6.1 15 -9.6 77 77 NE 14 22 30.68 1039 10 16.0934 0 0
3:55 am 03:55 Cloudy 20 -6.7 14 -10.1 77 77 NE 15 24 30.65 1038 10 16.0934 0 0
4:15 am 04:15 Cloudy 19 -7.1 13 -10.3 78 78 NE 16 26 30.65 1038 10 16.0934 0 0
4:35 am 04:35 Cloudy 19 -7.5 13 -10.5 79 79 NE 15 24 30.65 1038 10 16.0934 0 0
4:55 am 04:55 Cloudy 18 -7.6 13 -10.6 79 79 NE 12 19 30.71 1040 10 16.0934 0 0
5:15 am 05:15 Cloudy 18 -7.7 12 -11.2 76 76 NE 12 19 30.71 1040 10 16.0934 0 0
5:35 am 05:35 Cloudy 17 -8.1 11 -11.8 75 75 NE 14 22 30.71 1040 10 16.0934 0 0
5:55 am 05:55 Cloudy 17 -8.5 11 -11.5 79 79 ENE 13 20 30.65 1038 10 16.0934 0 0
6:15 am 06:15 Cloudy 16 -8.7 11 -11.6 80 80 NE 10 17 30.71 1040 10 16.0934 0 0
6:35 am 06:35 Cloudy 16 -9 10 -12.1 78 78 ENE 9 15 30.68 1039 10 16.0934 0 0
6:55 am 06:55 Cloudy 16 -9 10 -12.3 77 77 NE 10 17 30.68 1039 10 16.0934 0 0
7:15 am 07:15 Cloudy 15 -9.5 10 -12.5 79 79 ENE 8 13 30.71 1040 10 16.0934 0 0
7:35 am 07:35 Cloudy 15 -9.6 9 -13 77 77 ENE 6 9 30.71 1040 10 16.0934 0 0
7:55 am 07:55 Cloudy 15 -9.7 9 -13 77 77 E 5 7 30.71 1040 10 16.0934 0 0
8:15 am 08:15 Cloudy 14 -9.8 8 -13.1 77 77 E 6 9 30.71 1040 10 16.0934 0 0
8:35 am 08:35 Cloudy 14 -9.8 8 -13.1 77 77 E 6 9 30.71 1040 10 16.0934 0 0
8:50 am 08:50 Mostly Cloudy 14 -9.8 8 -13.1 77 77 E 5 7 30.71 1040 10 16.0934 0 0
9:15 am 09:15 Partly Cloudy 15 -9.5 8 -13.1 75 75 E 8 13 30.68 1039 10 16.0934 0 0
9:35 am 09:35 Partly Cloudy 15 -9.3 8 -13.5 72 72 ESE 8 13 30.68 1039 10 16.0934 0 0
9:55 am 09:55 Partly Cloudy 15 -9.4 5 -15 64 64 E 3 6 30.68 1039 10 16.0934 0 0
10:15 am 10:15 Cloudy 16 -9 4 -15.6 59 59 E 6 9 30.68 1039 10 16.0934 0 0
10:35 am 10:35 Partly Cloudy 17 -8.5 4 -15.5 57 57 ESE 6 9 30.65 1038 10 16.0934 0 0
10:55 am 10:55 Sunny 17 -8.5 3 -16 55 55 SE 6 9 30.65 1038 10 16.0934 0 0
11:15 am 11:15 Sunny 18 -7.8 3 -16.1 52 52 SE 10 17 30.65 1038 10 16.0934 0 0
11:35 am 11:35 Sunny 19 -7.5 2 -16.9 47 47 SE 9 15 30.65 1038 10 16.0934 0 0
11:55 am 11:55 Sunny 19 -7.3 0 -17.8 43 43 SSE 8 13 30.62 1037 10 16.0934 0 0
12:15 pm 12:15 Sunny 20 -6.8 3 -16.3 47 47 S 12 19 30.62 1037 10 16.0934 0 0
12:35 pm 12:35 Sunny 20 -6.5 1 -17.3 42 42 S 9 15 30.59 1036 10 16.0934 0 0
12:55 pm 12:55 Sunny 20 -6.4 0 -17.7 41 41 S 10 17 30.59 1036 10 16.0934 0 0
1:15 pm 13:15 Sunny 21 -6.2 0 -17.9 39 39 S 13 20 30.53 1034 10 16.0934 0 0
1:35 pm 13:35 Partly Cloudy 22 -5.6 1 -17.3 40 40 S 13 20 30.5 1033 10 16.0934 0 0
1:55 pm 13:55 Partly Cloudy 22 -5.5 1 -17.3 39 39 SSE 12 19 30.5 1033 10 16.0934 0 0
2:15 pm 14:15 Sunny 23 -5 0 -17.7 37 37 S 13 20 30.48 1032 10 16.0934 0 0
2:35 pm 14:35 Sunny 24 -4.3 1 -17.1 36 36 SSE 14 22 30.48 1032 10 16.0934 0 0
2:55 pm 14:55 Sunny 25 -4.1 1 -17.2 36 36 S 14 22 30.48 1032 10 16.0934 0 0
3:15 pm 15:15 Sunny 25 -4 2 -16.6 37 37 S 16 26 30.45 1031 10 16.0934 0 0
3:35 pm 15:35 Sunny 26 -3.3 2 -16.5 36 36 S 12 19 30.42 1030 10 16.0934 0 0
3:55 pm 15:55 Sunny 27 -2.7 2 -16.6 34 34 S 16 26 30.39 1029 10 16.0934 0 0
4:15 pm 16:15 Sunny 27 -2.6 3 -16.2 35 35 S 13 20 30.39 1029 10 16.0934 0 0
4:35 pm 16:35 Sunny 27 -2.6 4 -15.6 36 36 S 13 20 30.39 1029 10 16.0934 0 0
4:55 pm 16:55 Sunny 27 -2.8 5 -15.1 39 39 SSW 14 22 30.36 1028 10 16.0934 0 0
5:15 pm 17:15 Sunny 27 -2.6 5 -15.1 38 38 S 12 19 30.39 1029 10 16.0934 0 0
5:35 pm 17:35 Partly Cloudy 27 -2.6 6 -14.4 40 40 S 9 15 30.36 1028 10 16.0934 0 0
5:55 pm 17:55 Mostly Cloudy 27 -2.6 6 -14.4 40 40 S 9 15 30.36 1028 10 16.0934 0 0
6:15 pm 18:15 Mostly Cloudy 27 -2.6 7 -14 42 42 S 9 15 30.36 1028 10 16.0934 0 0
6:35 pm 18:35 Partly Cloudy 26 -3.4 8 -13.1 47 47 S 9 15 30.36 1028 10 16.0934 0 0
6:55 pm 18:55 Clear 25 -4 9 -13 50 50 S 8 13 30.36 1028 10 16.0934 0 0
7:15 pm 19:15 Clear 24 -4.2 9 -13 51 51 S 8 13 30.36 1028 10 16.0934 0 0
7:35 pm 19:35 Clear 23 -5.1 10 -12.5 56 56 SE 5 7 30.39 1029 10 16.0934 0 0
7:55 pm 19:55 Clear 22 -5.8 9 -12.8 58 58 SSE 7 11 30.39 1029 10 16.0934 0 0
8:15 pm 20:15 Clear 21 -6 9 -12.8 59 59 SSE 6 9 30.36 1028 10 16.0934 0 0
8:35 pm 20:35 Clear 22 -5.5 9 -13 56 56 S 13 20 30.36 1028 10 16.0934 0 0
8:55 pm 20:55 Clear 23 -5.2 8 -13.1 54 54 S 12 19 30.36 1028 10 16.0934 0 0
9:15 pm 21:15 Clear 23 -5 9 -13 54 54 S 12 19 30.3 1026 10 16.0934 0 0
9:35 pm 21:35 Clear 22 -5.4 9 -13 56 56 SSE 10 17 30.36 1028 10 16.0934 0 0
9:55 pm 21:55 Clear 22 -5.5 9 -12.9 56 56 S 14 22 30.3 1026 10 16.0934 0 0
10:15 pm 22:15 Clear 22 -5.5 9 -12.7 57 57 S 8 13 30.3 1026 10 16.0934 0 0
10:35 pm 22:35 Clear 22 -5.7 9 -12.6 59 59 S 13 20 30.33 1027 10 16.0934 0 0
10:55 pm 22:55 Clear 21 -5.9 10 -12.5 60 60 S 12 19 30.3 1026 10 16.0934 0 0
11:15 pm 23:15 Clear 21 -6 10 -12.3 61 61 S 9 15 30.33 1027 10 16.0934 0 0
11:35 pm 23:35 Clear 21 -6.1 10 -12.1 63 63 SSW 8 13 30.3 1026 10 16.0934 0 0
11:55 pm 23:55 Clear 21 -6.2 10 -12 64 64 S 7 11 30.3 1026 10 16.0934 0 0

Powered by AerisWeather